Flag Weather past 2 weeks in Lowell, Massachusetts, U.S.A.

Now
64 °F

Mostly cloudy.


Feels Like: 64 °F
Forecast: 39 / 61 °F
Wind: 13 mph from Southwest

Location: Hanscom Field

Current Time: Nov 24, 2014 at 1:17:59 PM

Latest Report: Nov 24, 2014 at 12:56 PM


Visibility: 10 mi

Pressure: 29.65 "Hg

Humidity: 94%

Dew point: 62 °F

Location of LowellLocation

Historic Weather in Lowell — Graph

°F

Lowell temperature yesterday

Maximum temperature yesterday: 57 °F (at 12:56 PM)
Minimum temperature yesterday: 36 °F (at 11:56 PM)
Average temperature yesterday: 47 °F

Past Weeks' High & Low Weather Summary

 TemperatureHumidityPressure
High63 °F (Nov 24, 11:56 AM)100% (Nov 11, 4:56 AM)30.47 "Hg (Nov 11, 4:56 AM)
Low19 °F (Nov 16, 4:56 AM)18% (Nov 22, 2:56 PM)29.49 "Hg (Nov 17, 8:56 PM)
Average38 °F66%30.06 "Hg
* Reported Nov 9 11:56 AM — Nov 24 11:56 AM, Lowell, Weather by CustomWeather, © 2014

Note: Actual official high and low records may vary slightly from our data, if they occured in-between our weather recording intervals... More about our weather records

Advertising

Lowell weather history for previous 24 hours

 ConditionsComfort  
Time TempWeatherWind HumidityBarometerVisibility
11:56 AM
Nov 24
63 °FMostly cloudy.13 mph93%29.68 "Hg10 mi
10:56 AM62 °FLight rain. Fog.15 mph93%29.70 "Hg3 mi
10:03 AM61 °FLight rain. Fog.18 mph93%29.70 "Hg4 mi
9:56 AM61 °FLight rain. Fog.14 mph93%29.74 "Hg3 mi
8:56 AM60 °FLight rain. Fog.14 mph93%29.75 "Hg4 mi
8:03 AM57 °FLight rain. Overcast.18 mph96%29.76 "Hg10 mi
7:56 AM57 °FLow clouds.17 mph93%29.80 "Hg10 mi
6:56 AM55 °FRain. Fog.17 mph96%29.88 "Hg4 mi
5:56 AM52 °FLight rain. Mostly cloudy.9 mph97%29.92 "Hg7 mi
4:56 AM49 °FLight rain. Fog.8 mph97%29.96 "Hg4 mi
3:56 AM43 °FMostly cloudy.5 mph82%30.01 "Hg10 mi
3:03 AM39 °FLow clouds.No wind82%30.01 "Hg10 mi
2:56 AM39 °FOvercast.No wind82%30.06 "Hg10 mi
1:56 AM37 °FClear.No wind82%30.09 "Hg10 mi
12:56 AM38 °FClear.No wind79%30.10 "Hg10 mi
11:56 PM
Nov 23
36 °FClear.No wind79%30.12 "Hg10 mi
10:56 PM41 °FClear.No wind67%30.14 "Hg10 mi
9:56 PM44 °FClear.5 mph60%30.14 "Hg10 mi
8:56 PM47 °FPassing clouds.7 mph59%30.16 "Hg10 mi
7:56 PM50 °FOvercast.6 mph57%30.15 "Hg10 mi
6:56 PM49 °FOvercast.5 mph64%30.16 "Hg10 mi
5:56 PM47 °FMostly cloudy.No wind71%30.16 "Hg10 mi
4:56 PM47 °FPassing clouds.5 mph69%30.15 "Hg10 mi
3:56 PM55 °FSunny.No wind53%30.13 "Hg10 mi
2:56 PM57 °FScattered clouds.7 mph49%30.13 "Hg10 mi
1:56 PM57 °FScattered clouds.8 mph49%30.13 "Hg10 mi
Weather by CustomWeather, © 2014

See weather overviewHow to use our weather pages